Home   Weather   Hebron   Past weeks

Flag for Palestinian Territories Past Weather in Hebron, West Bank, Palestinian Territories — Yesterday and Last 2 Weeks

72 °F


Feels Like: 75 °F
Forecast: 61 / 68 °F
Wind: 3 mph from North

Location: Ben Gurion International Airport

Current Time: Oct 28, 2016 at 1:32:56 AM

Latest Report: Oct 28, 2016 at 12:50 AM

Visibility: 10 mi

Pressure: 29.98 "Hg (27.03 "Hg at 894m altitude)

Humidity: 69%

Dew Point: 61 °F

Location of HebronLocation

Past Weather in Hebron — Graph


Hebron Temperature Yesterday

Maximum temperature yesterday: 90 °F (at 12:20 PM)
Minimum temperature yesterday: 64 °F (at 2:50 AM)
Average temperature yesterday: 75 °F

High & Low Weather Summary for the Past Weeks

High91 °F (Oct 13, 11:50 AM)89% (Oct 14, 11:50 PM)30.07 "Hg (Oct 14, 11:50 PM)
Low63 °F (Oct 16, 6:50 AM)22% (Oct 14, 10:50 AM)29.80 "Hg (Oct 26, 2:20 PM)
Average75 °F61%29.95 "Hg
* Reported Oct 13 12:20 AM — Oct 28 12:20 AM, Hebron, Weather by CustomWeather, © 2016

Note: Actual official high and low records may vary slightly from our data, if they occured in-between our weather recording intervals... More about our weather records


Hebron Weather History for the Previous 24 Hours

Scroll right to see more
Time TempWeatherWind HumidityBarometerVisibility
12:20 AM
Fri, Oct 28
72 °FClear.6 mph73%29.98 "Hg10 mi
11:50 PM
Thu, Oct 27
72 °FClear.8 mph73%29.98 "Hg10 mi
11:20 PM72 °FClear.3 mph73%29.98 "Hg10 mi
10:50 PM73 °FClear.5 mph65%29.95 "Hg10 mi
10:20 PM73 °FClear.8 mph65%29.98 "Hg10 mi
9:50 PM73 °FClear.10 mph65%30.01 "Hg10 mi
9:20 PM73 °FClear.7 mph74%30.01 "Hg10 mi
8:50 PM73 °FClear.10 mph69%30.01 "Hg10 mi
8:20 PM73 °FClear.13 mph69%29.98 "Hg10 mi
7:50 PM73 °FClear.16 mph69%29.98 "Hg10 mi
7:20 PM75 °FClear.16 mph61%29.92 "HgN/A
6:50 PM72 °FThunderstorms. Passing clouds.13 mph78%30.01 "Hg5 mi
6:20 PM81 °FLight rain. Dense fog.24 mph45%29.98 "Hg2 mi
5:50 PM82 °FSunny.6 mph37%29.89 "Hg10 mi
5:20 PM84 °FSunny.10 mph35%29.89 "Hg10 mi
4:50 PM84 °FSunny.9 mph35%29.89 "Hg10 mi
4:20 PM84 °FSunny.8 mph37%29.89 "Hg10 mi
3:50 PM86 °FSunny.7 mph31%29.89 "Hg10 mi
3:20 PM84 °FSunny.8 mph35%29.89 "Hg10 mi
2:50 PM84 °FPassing clouds.12 mph43%29.89 "HgN/A
2:20 PM86 °FSunny.10 mph35%29.89 "Hg10 mi
1:50 PM88 °FPassing clouds.10 mph31%29.89 "HgN/A
1:20 PM90 °FSunny.14 mph29%29.89 "Hg10 mi
12:50 PM90 °FSunny.10 mph27%29.89 "Hg10 mi
12:20 PM90 °FPassing clouds.6 mph27%29.89 "HgN/A
11:50 AM88 °FSunny.3 mph29%29.92 "Hg10 mi
11:20 AM86 °FSunny.3 mph33%29.92 "Hg10 mi
10:50 AM82 °FSunny.1 mph37%29.92 "Hg10 mi
10:20 AM81 °FSunny.2 mph39%29.95 "Hg10 mi
9:50 AM77 °FSunny.2 mph47%29.92 "Hg10 mi
9:20 AM73 °FPassing clouds.6 mph50%29.92 "HgN/A
8:50 AM72 °FPassing clouds.3 mph53%29.92 "HgN/A
8:20 AM70 °FPassing clouds.2 mph57%29.92 "HgN/A
7:50 AM66 °FSunny.2 mph64%29.92 "Hg10 mi
7:20 AM66 °FSunny.2 mph64%29.89 "Hg10 mi
6:50 AM64 °FClear.1 mph68%29.89 "Hg10 mi
6:20 AM64 °FClear.1 mph68%29.89 "Hg10 mi
5:50 AM66 °FClear.5 mph68%29.89 "Hg10 mi
5:20 AM66 °FClear.5 mph68%29.89 "Hg10 mi
4:50 AM64 °FClear.1 mph78%29.86 "Hg10 mi
4:20 AM64 °FClear.1 mph78%29.86 "Hg10 mi
3:50 AM66 °FClear.2 mph73%29.86 "Hg10 mi
3:20 AM64 °FClear.2 mph78%29.86 "Hg10 mi
2:50 AM64 °FClear.2 mph73%29.86 "Hg10 mi
2:20 AM68 °FClear.2 mph69%29.86 "Hg10 mi
1:50 AM68 °FClear.7 mph73%29.86 "Hg10 mi
1:20 AM66 °FClear.3 mph73%29.89 "Hg10 mi
Weather by CustomWeather, © 2016

See weather overviewHow to use our weather pages